Location: Rounton
(54.4000°N, 1.3500°W)
Time: 14:26:54
(UTC+00:00)

Transit 4A - Pass Details

Date: 29 November 2021
Orbit: 864 x 981 km, 66.8° (Epoch: 18 January)

Event Time Altitude Azimuth Distance (km) Brightness Sun altitude
Rises 02:20:06 0° 308° (NW) 3,553 - -47.1°
Reaches altitude 10° 02:22:54 10° 318° (NW) 2,629 - -46.8°
Maximum altitude 02:28:19 32° 20° (NNE) 1,574 - -46.1°
Exits shadow 02:32:13 17° 72° (ENE) 2,202 10.3 -45.6°
Drops below altitude 10° 02:33:52 10° 83° (E) 2,694 10.8 -45.4°
Sets 02:36:46 0° 93° (E) 3,653 11.6 -45.1°
